Location: Three Guys Observatory
(38.6418°N, 87.1521°W)
Time: 04:50:30
(UTC-04:00)

ISS - Visible Passes

Search period start: 25 September 2016 00:00
Search period end: 05 October 2016 00:00
Orbit: 400 x 410 km, 51.6° (Epoch: 25 September)

Date Brightness Start Highest point End Pass type
(mag) Time Alt. Az. Time Alt. Az. Time Alt. Az.
25 Sep -1.3 06:40:30 14° SW 06:40:30 14° SW 06:41:59 10° SSW visible
26 Sep -1.1 20:48:42 10° S 20:49:29 13° SSE 20:49:29 13° SSE visible
27 Sep -1.5 21:31:43 10° SW 21:33:15 25° SW 21:33:15 25° SW visible
28 Sep -2.9 20:39:51 10° SSW 20:42:56 42° SE 20:44:03 30° E visible
29 Sep -2.0 21:24:15 10° WSW 21:27:18 36° NNW 21:27:21 36° NNW visible
30 Sep -3.1 20:31:53 10° WSW 20:35:07 69° NW 20:37:45 15° NE visible
30 Sep 0.2 22:10:15 10° NW 22:10:26 11° NW 22:10:26 11° NW visible
01 Oct -1.0 21:17:15 10° WNW 21:19:44 20° NNW 21:20:40 18° N visible
02 Oct -1.6 20:24:30 10° W 20:27:25 30° NNW 20:30:21 10° NNE visible
03 Oct -0.6 21:10:41 10° NW 21:12:15 13° NNW 21:13:26 11° N visible
04 Oct -0.8 20:17:33 10° WNW 20:19:49 17° NNW 20:22:05 10° NNE visible
